Location: Newark
(13.9550°N, 109.0422°E)
Time: 01:36:18
(UTC+00:00)

Hubble Space Telescope - Pass Details

Date: 27 October 2019
Orbit: 536 x 540 km, 28.5° (Epoch: 19 November)

Event Time Altitude Azimuth Distance (km) Brightness Sun altitude
Exits shadow 20:54:50 38° 35° (NE) 827 1.8 -25.3°
Drops below altitude 10° 20:57:33 10° 55° (NE) 1,776 4.0 -24.6°
Sets 20:59:50 0° 59° (ENE) 2,666 5.1 -24.1°
